1st Responders/1st Detectors/Storm Spotters Weather Summary for Mason County, KY

Forecast Maps


Reg. NEXRAD Animation


National Fire Danger: Day 1 & 2 Map

Current NWS Watch/Warnings

SPC Convective Day 1 Outlook


Day 2 Outlook

(Click images to enlarge|Page will refresh every 5 minutes)
UK Ag. Weather Center Desktop Severe Weather Service[HERE]
Mason County, KY Hazardous Weather Outlook Webcast
(9 AM to 9 PM Mon-Fri)
[Fast]
[Dial-up]


UKAWC 1st Detectors/1st Responders Precision Weather Forecast For MASON County, Kentucky
(based on the NWS County Digital Forecast)

ISSUED AT 08:00 UTC ON FRIDAY JAN 21 2022
DAY FRIDAY
EDT 3HR 5A 6A 7A 8A 9A 10A 11A NOON 1P 2P 3P 4P 5P 6P 7P
MAX/MIN -- -- -- 13° -- -- -- -- -- -- -- -- -- -- 25°
TEMP 16° 16° 16° 16° 14° 16° 18° 20° 22° 22° 25° 25° 25° 22° 20°
SKY COVER 50% 22% 19% 16% 12% 8% 8% 13% 19% 24% 21% 19% 16% 16% 16%
Clouds
DEW PT
RH 69% 73% 73% 73% 76% 73% 66% 61% 56% 54% 49% 47% 48% 51% 59%
POP 12HR -- -- -- 17% -- -- -- -- -- -- -- -- -- -- --
RAIN/SNOW (liq.equ) -- -- -- 0.00in -- -- -- -- -- 0.00in -- -- -- -- --
SNOWFALL -- -- -- 0in -- -- -- -- -- 0in -- -- -- -- --
WIND SPEED(MPH) 7 7 7 7 7 7 8 8 8 7 7 7 7 7 6
WIND Gust(MPH) 7 7 7 7 7 7 8 9 8 7 7 7 7 7 6
WIND DIR NE NE NE NE NE NE NE NE NE NE NE NE NE NE NE
DEW Freeze Freeze Freeze Freeze Freeze Freeze Freeze -- -- -- -- -- -- -- --
HeatIndex 7 6 6 6 5 5 6 9 11 13 16 16 17 14 13
Snow -- -- -- -- -- -- -- -- -- -- -- -- -- -- --
Rain -- -- -- -- -- -- -- -- -- -- -- -- -- -- --
WIND CHILL 11° 13° 14° 17° 17° 17° 14° 12°
SPRAY COND
DRY COND
LIVESTOCK COLDSTRESS



DAY SATURDAY SUNDAY MONDAY TUESDAY WEDNESDAY THURSDAY
EDT 6HR 8P 9P 10P 11P MIDN 1A 2A 3A 4A 5A 6A 7A 8A 9A 10A 11A NOON 1P 2P 3P 4P 5P 8P 11P 2A 5A 8A 11A 2P 5P 8P 2A 8A 2P 8P 2A 8A 2P 8P 2A 8A 2P 8P 2A 8A 2P 8P
MAX/MIN -- -- -- -- -- -- -- -- -- -- -- -- -- -- -- -- -- -- -- -- 32° -- -- -- -- 20° -- -- 34° -- -- 20° 41° -- -- 31° 36° -- -- 20° 29° -- -- 13° 29° --
TEMP 20° 18° 16° 16° 14° 13° 13° 13° 11° 11° 13° 16° 20° 22° 27° 27° 29° 31° 25° 25° 23° 22° 22° 25° 31° 32° 29° 25° 22° 36° 34° 34° 32° 32° 29° 23° 20° 25° 22° 18° 14° 27° 23°
SKY COVER 15% 11% 8% 4% 4% 4% 4% 5% 6% 7% 7% 6% 6% 7% 9% 10% 16% 23% 29% 35% 41% 47% 62% 46% 38% 41% 62% 62% 77% 72% 84% 60% 55% 63% 79% 84% 88% 88% 72% 63% 59% 59% 52% 35% 34% 56% 59%
Clouds
DEW PT 11° 13° 11° 13° 13° 14° 16° 20° 22° 22° 20° 23° 27° 31° 31° 27° 22° 18° 16° 14° 11° 11° 13°
RH 62% 67% 69% 70% 73% 76% 76% 75% 79% 83% 83% 83% 87% 83% 72% 69% 58% 54% 45% 43% 40% 39% 54% 59% 59% 67% 71% 64% 50% 58% 74% 88% 91% 61% 72% 85% 92% 78% 72% 77% 80% 62% 62% 69% 73% 50% 62%
POP 12HR 0% -- -- -- -- -- -- -- -- -- -- -- 0% -- -- -- -- -- -- -- -- -- 0% -- -- -- 0% -- -- -- 15% -- 4% -- 3% -- 26% -- 40% -- 20% -- 10% -- 6% -- 5%
RAIN/SNOW (liq.equ) 0.00in -- -- -- -- -- 0.00in -- -- -- -- -- 0.00in -- -- -- -- -- 0.00in -- -- -- 0.00in -- 0.00in -- 0.00in -- 0.00in -- 0.01in -- -- -- -- -- -- -- -- -- -- -- -- -- -- -- --
SNOWFALL 0in -- -- -- -- -- 0in -- -- -- -- -- 0in -- -- -- -- -- 0in -- -- -- 0in -- 0in -- 0in -- 0in -- 0in -- -- -- -- -- -- -- -- -- -- -- -- -- -- -- --
WIND SPEED(MPH) 5 2 2 1 1 1 1 0 0 0 0 0 0 0 1 2 5 6 7 7 7 7 7 7 7 7 7 8 8 7 6 2 5 7 6 7 6 7 6 5 5 6 5 1 1 6 2
WIND DIR NE NE NE NE NE NE NE E E SE SE S SW SW SW SW SW SW SW SW SW SW SW SW SW SW SW SW SW W W N S SW S SW SW NW NW NW NW N N N W SW S
HeatIndex 13 12 11 16 14 13 13 13 11 11 9 9 9 9 13 10 13 15 19 20 22 23 18 17 15 13 13 15 24 25 22 20 16 29 29 29 27 25 23 18 14 19 16 18 14 20 19
Snow -- -- -- -- -- -- -- -- -- -- -- -- -- -- -- -- -- -- -- -- -- -- -- -- -- -- -- -- Slight Chance Slight Chance -- -- -- -- -- Chance Chance Chance Slight Chance -- -- -- -- -- -- -- --
Rain -- -- -- -- -- -- -- -- -- -- -- -- -- -- -- -- -- -- -- -- -- -- -- -- -- -- -- -- -- -- -- -- -- -- -- Chance -- -- -- -- -- -- -- -- -- -- --
WIND CHILL 14° -- -- -- -- -- -- -- -- -- -- -- -- -- -- -- 14° 15° 20° 20° 22° 25° 17° 17° 15° 14° 14° 17° 24° 26° 23° -- 16° 30° 29° 28° 27° 26° 23° 17° 14° 18° 16° -- -- 21° --
SPRAY COND
DRY COND
LIVESTOCK COLDSTRESS

Click on individual weather variable above in left-hand column (ie., TEMP, RH, QPF 12HR) to view state forecast maps






NWS 48 Hr. Forecast Maps,

Regional Hourly Observations For MASON County, Kentucky
Issued at 300 AM EST FRI JAN 21 2022
...CENTRAL KENTUCKY...
  
CITY           SKY/WX    TMP DP  RH WIND       PRES   REMARKS
MT STERLING*   CLOUDY    19  12  73 NE6       30.44R WCI  11          
FLEMING/MASON* CLOUDY    19   9  63 NE7       30.46R WCI  10          
DANVILLE*      CLOUDY    19  10  68 N7        30.42S WCI  10          
RICHMOND*      CLOUDY    19  16  86 NE9       30.42S WCI   9          
LEXINGTON      CLOUDY    19   9  65 NE9       30.42S WCI   8          
FRANKFORT      CLOUDY    22   9  57 NE7       30.44R WCI  13          
LOUISVILLE     PTCLDY    20   8  60 N9        30.47S WCI   9          
LEBANON*       FAIR      16  10  79 CALM      30.43R                  
GLASGOW*       CLEAR     18  11  74 CALM      30.43R                  
BOWLING GREEN  CLEAR     20  11  68 N3        30.45                   


Current NOWCAST not available:
Nowcasts are not issued routinely during fair weather. Only when
precipitation or other significant weather is occuring in this county will these
forecasts be issued. Currently, there is no short term forecast in effect.


Fire Weather Forecast For MASON County, KY
Provided by the National Weather Service:

Issued at: Fri Jan 21 03:50:52 EST 2022

CLOUD COVER                     Pcldy       Mclear       Mclear
PRECIP TYPE                  Flurries         None         None
CHANCE PRECIP (%)                   0            0            0
TEMP (24H TREND)              26 (-2)       7 (-9)           32
RH % (24H TREND)              47 (-6)      85 (+9)           38
20FTWND-AM(MPH)                 NE  6                   Lgt/Var
20FTWND-PM(MPH)                 NE  5      Lgt/Var        SW  5
PRECIP AMOUNT                    0.00         0.00         0.00
PRECIP DURATION                                                
MIXING HGT(FT-AGL)               2660                      2200
TRANSPORT WND (MPH)             NE 10                     SW 13
LAL                                 1            1            1
HAINES INDEX                        4            4            4

REMARKS...None.

.FORECAST FOR DAYS 3 THROUGH 7...
.SATURDAY NIGHT...Partly cloudy. Lows around 20. Southwest winds around
5 mph. 
.SUNDAY...Mostly cloudy with a chance of snow. Highs in the lower 30s.
Southwest winds 5 to 10 mph. 
.MONDAY...Mostly cloudy. Lows around 19. Highs in the lower 40s. South
winds 5 to 10 mph. 
.TUESDAY...Mostly cloudy with a chance of snow and rain. Lows around 30.
Highs in the upper 30s. Northwest winds 5 to 10 mph. 
.WEDNESDAY...Partly cloudy. Lows around 17. Highs in the upper 20s. North
winds 5 to 10 mph. 
.THURSDAY...Mostly clear. Lows around 12. Highs in the lower 30s.
Southeast winds around 5 mph. 

SPC's Fire Weather Web Tool (Excellent!), SPC's Fire Weather Outlooks, NWS Fire Weather WEB, Fire Danger Class Map,
Keetch-Byram Drought Index, ROMAN Web, Haines Index ,
WFAS's 10-hr Dead Fuel Moist., WFAS's 100-hr Dead Fuel Moist., Probablity of Ignition, Visual blackness Map, Palmer Drought Index, HPC's Rainfall Forecast Maps


Hazardous Weather Outlook For MASON County, Kentucky
641 AM EST Thu Jan 20 2022

 DAY ONE  Today and tonight.

No hazardous weather is expected at this time.

 DAYS TWO THROUGH SEVEN  Friday through Wednesday.

The probability for widespread hazardous weather is low.

 SPOTTER INFORMATION STATEMENT  

Spotter activation is not expected at this time.

Latest MASON County, Kentucky Watches, Warnings and Advisories.
Additional Drought Info.: UKAWC Drought Page, Kentucky Drought Watch


7-Day Forecast For MASON County, KY

TODAY
Mostly sunny early this morning, then becoming partly cloudy. A chance of flurries this afternoon. Highs in the mid 20s. Northeast winds 5 to 10 mph.

TONIGHT
Partly cloudy in the evening, then clearing. Lows 5 to 10 above. Northeast winds around 5 mph in the evening, becoming light and variable.

SATURDAY
Sunny in the morning, then becoming partly cloudy. Highs in the lower 30s. Southwest winds 5 to 10 mph.

SATURDAY NIGHT
Partly cloudy. Lows around 20. Southwest winds 5 to 10 mph.

SUNDAY
Mostly cloudy with a 40 percent chance of snow. Highs in the lower 30s. Southwest winds 5 to 10 mph.

SUNDAY NIGHT
Partly cloudy. A chance of snow in the evening. Lows around 20. Chance of snow 30 percent.

MONDAY
Partly cloudy. Highs in the lower 40s.

MONDAY NIGHT
Mostly cloudy. Lows around 30.

TUESDAY
Mostly cloudy with a chance of snow and rain. Highs in the upper 30s. Chance of precipitation 40 percent.

TUESDAY NIGHT
Partly cloudy. A chance of snow in the evening. Cooler with lows 15 to 20. Chance of snow 40 percent.

WEDNESDAY
Partly cloudy. Highs in the upper 20s.

WEDNESDAY NIGHT
Mostly clear. Lows around 10 above.

THURSDAY
Mostly sunny. Highs in the lower 30s.

Ag Weather Center, Department of Biosystems & Agricultural Engineering, University of Kentucky